Regional Weather Roundup
Issued by NWS

Home | Current Version | Previous Version | Text Only | Print | Product List | Glossary Off
Versions: 1 2 3 4 5 6 7 8 9 10 11 12 13 14 15 16 17 18 19 20 21 22 23 24 25 26 27 28 29 30 31 32 33 34 35 36 37 38 39 40 41 42 43 44 45 46 47 48 49 50

000
ASUS45 KPSR 081410
RWRAZ

ARIZONA HOURLY REGIONAL WEATHER ROUNDUP
NATIONAL WEATHER SERVICE PHOENIX AZ
700 AM MST MON FEB 08 2016

NOTE: FAIR INDICATES FEW OR NO CLOUDS BELOW 12,000 FEET WITH NO
SIGNIFICANT WEATHER AND/OR OBSTRUCTIONS TO VISIBILITY.

AZZ001>003-036-081500-
NORTHWEST ARIZONA

CITY           SKY/WX    TMP DP  RH WIND       PRES   REMARKS
BULLHEAD CITY  CLEAR     57  25  28 N26G38    30.32R
KINGMAN        CLEAR     40  20  44 NE10      30.40R WCI  33
$$

AZZ004>008-015-016-018-081500-
NORTH CENTRAL ARIZONA

CITY           SKY/WX    TMP DP  RH WIND       PRES   REMARKS
GRAND CANYON   PTCLDY    38  15  39 NE9       30.49S WCI  31
WILLIAMS       CLEAR     21  14  73 S9        30.50S WCI  11
PRESCOTT       PTCLDY    28  19  69 S5        30.42R WCI  23
FLAGSTAFF      CLEAR     34  12  40 E12       30.48R WCI  25
PAYSON         CLEAR     43  12  28 N7        30.38R
PAGE           PTCLDY    29  23  78 SW3       30.55R
$$

AZZ009>014-017-081500-
NORTHEAST ARIZONA

CITY           SKY/WX    TMP DP  RH WIND       PRES   REMARKS
WINSLOW        PTCLDY    21  15  78 SW6       30.52R WCI  13
SAINT JOHNS    CLEAR     19  13  77 CALM      30.49R
WINDOW ROCK    CLEAR     20   0  41 CALM      30.50R
SHOW LOW       CLEAR     23  14  68 CALM      30.50R
$$

AZZ023-081500-
GREATER PHOENIX AREA

CITY           SKY/WX    TMP DP  RH WIND       PRES   REMARKS
PHOENIX        PTCLDY    61  19  19 NE8       30.19R
BUCKEYE        CLEAR     46  27  46 N5        30.21S
GLENDALE       CLEAR     52  25  35 CALM      30.22R
LUKE AFB       CLEAR     54  22  28 CALM      30.19R
DEER VALLEY    CLEAR     53  19  26 N8        30.21R
SCOTTSDALE     CLEAR     54  22  28 CALM      30.22R
MESA-FALCON    CLEAR    N/A N/A N/A N14       30.21R
MESA-GATEWAY   PTCLDY    43  28  56 E5        30.21R
CHANDLER         N/A     46  28  49 CALM      30.20R
$$

AZZ027-028-081500-
SOUTHWEST MARICOPA COUNTY AND PINAL COUNTY

CITY           SKY/WX    TMP DP  RH WIND       PRES   REMARKS
CASA GRANDE    CLEAR     48  23  37 N6        30.20R
GILA BEND      FAIR      49  25  38 CALM      30.17R
$$

AZZ503-504-507>509-081500-
SOUTHEAST ARIZONA

CITY           SKY/WX    TMP DP  RH WIND       PRES   REMARKS
TUCSON         CLEAR     40  21  46 E5        30.23R
DAVIS-MONTHAN  CLEAR     49  16  26 SE12      30.21R
RYAN FIELD     CLEAR     43  23  45 SW6       30.22R
NOGALES        CLEAR     48  11  22 NE9       30.24R
SIERRA VISTA   CLEAR     46  10  23 CALM      30.32R
DOUGLAS        PTCLDY    37  13  37 N9        30.31R WCI  30
SAFFORD        CLEAR     33  20  58 E6        30.34R WCI  28
$$

AZZ020-021-025-026-031-081500-
SOUTHWEST ARIZONA

CITY           SKY/WX    TMP DP  RH WIND       PRES   REMARKS
YUMA           PTCLDY    64  20  18 N13       30.17R
$$

CAZ031-033-041-043-047-048-061-081500-
SOUTHERN CALIFORNIA

CITY           SKY/WX    TMP DP  RH WIND       PRES   REMARKS
DOWNTOWN L.A.  CLEAR     53  36  52 CALM      30.11R
L.A. AIRPORT   CLEAR     56  34  43 SE5       30.11R
SAN DIEGO      CLEAR     56  30  37 CALM      30.09R
BURBANK        CLEAR     63  23  21 VRB6      30.11S
ONTARIO        CLEAR     73  18  12 NE17G29   30.13R
RIVERSIDE      CLEAR     70  20  15 NE10G20   30.17R
PALM SPRINGS   CLEAR     69  23  17 W8        30.25R
EL CENTRO NAS  PTCLDY    49  21  33 W8        30.21R
IMPERIAL       CLEAR     51  28  41 NW6       30.19R
BLYTHE         CLEAR     59  20  22 NW16      30.23R
NEEDLES        CLEAR     58  23  26 N22G31    30.31R
$$

NVZ020-UTZ003-081500-
SOUTHERN NEVADA-UTAH

CITY           SKY/WX    TMP DP  RH WIND       PRES   REMARKS
LAS VEGAS      CLEAR     50  23  34 NW3       30.41S
SALT LAKE CITY PTCLDY    25  20  81 CALM      30.68R HAZE
$$

NMZ009-TXZ055-081500-
NEW MEXICO-WEST TEXAS

CITY           SKY/WX    TMP DP  RH WIND       PRES   REMARKS
ALBUQUERQUE    CLOUDY    31  19  61 NW6       30.44S WCI  25
EL PASO        PTCLDY    39  18  42 SE8       30.41R WCI  33
$$


........................KEY........................
SKY/WX - SKY CONDITION/WEATHER
TMP    - TEMPERATURE IN FAHRENHEIT
DP     - DEW POINT IN FAHRENHEIT
RH     - RELATIVE HUMIDITY IN PERCENT
WIND   - DIRECTION AND SPEED IN MILES PER HOUR (MPH)
VRB    - VARIABLE WIND DIRECTION
PRES   - MEAN SEA LEVEL PRESSURE IN INCHES OF MERCURY
         F - FALLING PRESSURE   R - RISING PRESSURE
         S - STEADY PRESSURE
VSB    - VISIBILITY IN MILES
HX     - HEAT INDEX IN FAHRENHEIT
WCI    - WIND CHILL INDEX IN FAHRENHEIT
TC     - TEMPERATURE IN CELSIUS WHICH IS ALSO KNOWN AS
         TEMPERATURE IN CENTIGRADE
AFB    - AIR FORCE BASE
         LUKE AFB IS LUKE AIR FORCE BASE
         DAVIS-MONTHAN IS DAVIS-MONTHAN AIR FORCE BASE
NAS    - NAVAL AIR STATION
         EL CENTRO NAS IS EL CENTRO NAVAL AIR STATION
N/A    - NOT AVAILABLE




USA.gov is the U.S. government's official web portal to all federal, state and local government web resources and services.